Location: *
(46.1333°S, 161.2167°W)
Time: 03:28:06
(UTC+00:00)

Cosmos 1626 - Pass Details

Date: 15 July 2020
Orbit: 491 x 495 km, 82.5° (Epoch: 10 August)

Event Time Altitude Azimuth Distance (km) Brightness Sun altitude
Rises 17:40:26 0° 332° (NNW) 2,580 5.7 -7.1°
Reaches altitude 10° 17:42:40 10° 322° (NW) 1,707 4.7 -6.8°
Maximum altitude 17:46:07 34° 255° (WSW) 843 2.8 -6.2°
Drops below altitude 10° 17:49:37 10° 188° (S) 1,734 4.6 -5.7°
Sets 17:51:54 0° 178° (S) 2,628 5.5 -5.3°
